Miscellaneous Local Product
Issued by NWS North Platte, NE

Home | Current Version | Previous Version | Text Only | Print | Product List | Glossary On
Versions: 1 2 3 4 5 6 7 8 9 10 11 12 13 14 15 16 17 18 19 20 21 22 23 24 25 26 27 28 29 30 31 32 33 34 35 36 37 38 39 40 41 42 43 44 45 46 47 48 49 50
872
AXUS43 KLBF 250210
MISLBF


WESTERN AND NORTH CENTRAL NEBRASKA HOURLY WEATHER ROUNDUP
NATIONAL WEATHER SERVICE NORTH PLATTE NE
900 PM CDT FRI MAR 24 2017

NOTE: "FAIR" INDICATES FEW OR NO CLOUDS BELOW 12,000 FEET WITH NO
SIGNIFICANT WEATHER AND/OR OBSTRUCTIONS TO VISIBILITY.

NOTE: STATIONS NOT REPORTING VARIABLES SUCH AS SKY/WEATHER OR
PRESSURE ARE PROVIDED BY RAWS AND APRS NETWORKS AND ARE NOT UNDER
NATIONAL WEATHER SERVICE QUALITY CONTROL.

...OBSERVATIONS IN AND NEAR THE EASTERN PANHANDLE OF NEBRASKA...

CITY           SKY/WX    TMP DP  RH WIND       PRES   REMARKS
PINE RIDGE     CLEAR     47  30  51 SE9       30.08S
CHADRON        CLEAR     46  31  55 SE10      30.08R
ALLIANCE       CLEAR     40  27  59 SE8       30.10S WCI  34
SIDNEY         CLEAR     39  28  64 E5        30.12S
CRESCENT LAKE    N/A     46  28  48 NE6         N/A
$$

...OBSERVATIONS IN NORTHERN NEBRASKA AND FAR SOUTHERN SOUTH DAKOTA...

CITY           SKY/WX    TMP DP  RH WIND       PRES   REMARKS
WINNER         FAIR      41  32  70 SE8       30.12R
VALENTINE      CLEAR     41  29  62 E8        30.12R
THEDFORD       CLEAR     43  32  66 N5        30.11S
AINSWORTH      CLEAR     37  32  84 N8        30.11R WCI  30
O`NEILL        CLOUDY    42  38  86 N7        30.10R
ORD            RAIN      41  38  89 N10       30.06R FOG
BROKEN BOW     LGT RAIN  43  39  86 N10       30.07R
VALENTINE NWR    N/A     45  31  58 NE6G14      N/A
HALSEY           N/A     44  33  65 N5          N/A
BUTTE            N/A     38  33  84 N13         N/A  WCI  30
CHAMBERS         N/A     42  39  90 N3          N/A
EWING            N/A     41  39  92 NE3         N/A
$$

...OBSERVATIONS IN SOUTHWEST NEBRASKA AND FAR NORTHEAST COLORADO...

CITY           SKY/WX    TMP DP  RH WIND       PRES   REMARKS
WRAY           FAIR      37  36  93 N6        30.11S WCI  33
HOLYOKE        FAIR      41  36  81 N3        30.11S
IMPERIAL       CLOUDY    42  36  79 N7        30.10R
OGALLALA       CLEAR     40  32  74 N6        30.11R
NORTH PLATTE   CLOUDY    45  38  76 N7        30.09R
MCCOOK         LGT RAIN  42  40  92 N17       30.07R
LEXINGTON      LGT RAIN  42  39  90 N12       30.05S
STAPLETON        N/A     42  36  79 CALM        N/A
GOTHENBURG       N/A     42  38  86 N13         N/A
CALLAWAY         N/A     41  39  93 NE9         N/A
$$

...OBSERVATIONS IN CENTRAL LINCOLN COUNTY AREA...

CITY           SKY/WX    TMP DP  RH WIND       PRES   REMARKS
N.P. AIRPORT   CLOUDY    45  38  76 N7        30.09R
N.P. DOWNTOWN    N/A     46  39  76 N3          N/A
N.P. SOUTHEAST   N/A     45  38  77 CALM        N/A
N.P. HILLCREST   N/A     45  37  73 NE8         N/A
$$

...SOME OBSERVATIONS FROM AROUND THE REGION...

CITY           SKY/WX    TMP DP  RH WIND       PRES   REMARKS
DENVER         PTCLDY    41  31  67 SE7       30.14S
LIMON          CLEAR     34  33  96 NW8       30.13R WCI  27
ASPEN          CLOUDY    42  29  59 S7        30.18R
LARAMIE        CLEAR     40  17  39 E3        30.12S
GILLETTE       CLEAR     46  32  58 S10       29.96F
CHEYENNE       CLEAR     42  22  44 E9        30.13R
SCOTTSBLUFF    CLEAR     43  29  57 E5        30.10R
GRAND ISLAND   CLOUDY    40  40 100 N15G23    30.04R WCI  32
OMAHA          LGT RAIN  43  38  82 N16       29.99R
SIOUX FALLS    CLOUDY    39  35  86 NE17      30.14R WCI  30
PIERRE         CLEAR     40  32  73 E9        30.10S WCI  34
RAPID CITY     CLEAR     45  29  53 SE7       30.05R
BISMARCK       CLEAR     36  32  85 E10       30.14S WCI  28
KANSAS CITY    CLOUDY    60  57  89 S9        29.84R
HILL CITY      CLOUDY    43  39  86 N18G26    30.03R
WICHITA        CLOUDY    57  48  72 N20       29.80R
DODGE CITY     CLOUDY    43  40  89 N25G31    29.97R
OKLAHOMA CITY  MOCLDY    55  48  77 S5        29.71R
DALLAS         PTCLDY    74  35  24 SW13      29.76R
AMARILLO       CLOUDY    46  37  71 N29G43    30.02R
$$




USA.gov is the U.S. government's official web portal to all federal, state and local government web resources and services.